Weather in Straubing

Germany     48°52′50″N   12°34′25″E
temp.,
°C
wind,
m/s
gust,
m/s
humid.,
%
clouds,
%
prec.,
mm/h
press.,
hPa
HPBL,
m
18 april, sun
sun1823:00+1nne229299 0.0 102128
02:000nne229681 0.0 102126
05:000ne119389 0.0 102151
08:00+2nne1195100 0.0 1021217
11:00+5sw0175100 0.1 1020730
14:00+7wsw116489 0.1 10191076
17:00+9wsw115896 0.1 10181130
20:00+6w1175100 0.1 101915
19 april, mon
mon1923:00+3w119099 0.0 102016
02:00+2wsw1195100 0.0 102012
05:00+1nw019698 0.0 102010
08:00+4nnw1187100 0.0 1020163
11:00+8n127192 0.1 1019914
14:00+8ese2281100 1.1 1018693
17:00+9w127595 0.5 1017675
20:00+6wnw2292100 1.0 101822
20 april, tue
tue2023:00+5nw229578 0.0 101819
02:00+5nw2294100 0.0 101761
05:00+5wnw239478 0.0 101775
08:00+6nw129299 0.0 1017138
11:00+10ne127364 0.3 1016617
14:00+12wnw326328 1.7 10151230
17:00+12nw44637 0.7 10141110
20:00+8nnw2287100 1.5 101614
21 april, wed
wed2123:00+5nnw229395 0.0 101721
02:00+4ne009340 0.0 101710
05:00+5s119225 0.0 101713
08:00+6s119197 0.1 1018138
11:00+9sw128590 0.4 1018501
14:00+12w126861 1.4 1017978
17:00+13wnw236547 1.5 10161058
20:00+9nw1283100 2.5 101611
22 april, thu
thu2223:00+7nw2292100 0.0 101829
02:00+5nnw22965 0.0 101928
05:00+3nw229667 0.0 102018
08:00+6nw2692100 0.0 1021356
11:00+8nw466562 0.0 10221181
14:00+11wnw58310 0.0 10211670
17:00+11nw57364 0.0 10212033
20:00+6nw23595 0.0 102351